User: anonymous   Login
Location: Unspecified
(0.0000°N, 0.0000°E)
Time: 14:32:01
(UTC+00:00)
Language:

CANX 3B (BRITE-ASRA) - Orbit

View from above orbital plane
View from above orbital plane
View from above satellite
View from above satellite

Ground track
Ground track

The orbit data is extracted from the following two-line orbital elements,

1 39091U 13009F   16339.57172152  .00000020  00000-0  22541-4 0  9997
2 39091  98.5633 180.0948 0010814 159.5686 200.5934 14.35005717197588
Epoch (UTC): 04 December 2016 13:43:16
Eccentricity: 0.0010814
inclination: 98.5633°
perigee height: 767 km
apogee height: 783 km
right ascension of ascending node: 180.0948°
argument of perigee: 159.5686°
revolutions per day: 14.35005717
mean anomaly at epoch: 200.5934°
orbit number at epoch: 19758

The dashed part of the orbit path shows where the satellite is in the earth's shadow,  

DLR